Torna al catalogo

YAM-8

AttivoComunicazioniSSO
NORAD 63254·PAYLOAD·🇺🇸 United States

Lanciato Mar 15, 2025 da Vandenberg Space Force Base

Loading…

Prossimi Passaggi (prossime 24 ore)

TLE

AggiornatoSource: Space-Track

Epoca: Sep 13, 2026, 15:39 UTC

1 63254U 25052AW  26256.65275078  .00003181  00000-0  20318-3 0  9995
2 63254  97.6826 158.5543 0002435 123.7458 236.4003 15.09385240 82628

Traccia YAM-8 in tempo reale con AllMySat

Download on the App Store